Content
SEND FEEDBACK

Daily
Averages
Monthly
Summary
United States of America

MARAMEC, OKLAHOMA


Home > North America > United States > Oklahoma
Elevation: 290 meters     Latitude: 36 15N     Longitude: 096 41W

WEATHER
 
SELECT A DAY
Number of Records: 227,960;   Date Range: 5/19/05 - 10/22/14
 
SHARE

PRINT THIS DATA

[ ← Previous Day ]
WEATHER ALMANAC - 31 JANUARY, 2013
[ Next Day → ]
[ °F ]   °C
Weather ElementAverageHighLow
Temperature1.8 °C12 °C (11:55 am)-5 °C (12:35 am)
Dewpoint-3.4 °C1 °C (12:35 pm)-10 °C (10:35 pm)
Humidity70.6 %100 % (12:35 am)41 % (11:55 am)
Barometer1021.7 hPa1030.8 hPa (9:15 pm)1016.3 hPa (4:15 am)
Wind Speed11.9 km/h37 km/h (3:35 pm)
Wind Gust46.3 km/h (3:35 pm)
Weather ElementAverage
Visibility16.1 km
Wind DirectionE (94.8 °)

Weather ElementTotal
Precipitation---
Heating Degree Days14.8 (Base 18.3)
Averaged from 69 records on 31 January, 2013
WEATHER CONDITIONS BREAKOUT
WIND DIRECTION BREAKOUT
WEATHER BY HOUR - 31 JANUARY, 2013
[ °F ]   °C
Local TimeTemperatureDewpointHumidityBarometerVisibilityWind DirectionWind SpeedGust SpeedPrecipitationEventsConditions
12:35 AM-5 °C-5 °C100 %1017.6 hPa16.1 kmCalmClear
12:55 AM-4 °C-4 °C100 %1017.3 hPa16.1 kmCalmClear
1:15 AM-3 °C-4 °C93 %1016.9 hPa16.1 kmSouth (180°)5.6 km/hClear
1:35 AM-3 °C-5 °C86 %1016.9 hPa16.1 kmSouth (190°)5.6 km/hClear
1:55 AM-5 °C-5 °C100 %1016.9 hPa16.1 kmCalmClear
2:15 AM-5 °C-5 °C100 %1016.9 hPa16.1 kmCalmClear
2:35 AM-4 °C-5 °C93 %1016.9 hPa16.1 kmCalmClear
2:55 AM-3 °C-4 °C93 %1016.9 hPa16.1 kmCalmClear
3:15 AM-1 °C-3 °C86 %1016.9 hPa16.1 kmWSW (240°)5.6 km/hClear
3:35 AM-1 °C-3 °C86 %1016.6 hPa16.1 kmWSW (250°)7.4 km/hClear
3:55 AM-1 °C-3 °C86 %1016.6 hPa16.1 kmWest (260°)5.6 km/hClear
4:15 AM-1 °C-3 °C86 %1016.3 hPa16.1 kmCalmClear
4:35 AM-1 °C-3 °C86 %1016.3 hPa16.1 kmCalmClear
4:55 AM-1 °C-4 °C80 %1016.3 hPa16.1 kmSSW (200°)5.6 km/hClear
5:15 AM-2 °C-3 °C93 %1016.3 hPa16.1 kmSSW (210°)5.6 km/hClear
5:35 AM-2 °C-3 °C93 %1016.3 hPa16.1 kmSouth (180°)5.6 km/hClear
5:55 AM-1 °C-4 °C80 %1016.6 hPa16.1 kmCalmClear
6:15 AM-1 °C-4 °C80 %1016.9 hPa16.1 kmCalmClear
6:35 AM0 °C-4 °C75 %1016.9 hPa16.1 kmCalmClear
6:55 AM-1 °C-4 °C80 %1016.9 hPa16.1 kmSouth (190°)5.6 km/hClear
7:15 AM-1 °C-4 °C80 %1017.3 hPa16.1 kmCalmClear
7:35 AM-1 °C-4 °C80 %1017.9 hPa16.1 kmSSW (210°)5.6 km/hClear
7:55 AM0 °C-3 °C80 %1017.9 hPa16.1 kmSouth (170°)7.4 km/hClear
8:15 AM0 °C-3 °C80 %1017.9 hPa16.1 kmCalmClear
8:35 AM3 °C-3 °C65 %1018.3 hPa16.1 kmSW (230°)16.7 km/hClear
8:55 AM3 °C-2 °C70 %1018.3 hPa16.1 kmSW (230°)5.6 km/hClear
9:15 AM5 °C-2 °C61 %1018.6 hPa16.1 kmSW (230°)5.6 km/hClear
9:35 AM6 °C-2 °C57 %1018.6 hPa16.1 kmSW (220°)11.1 km/hClear
9:55 AM7 °C-2 °C53 %1019 hPa16.1 kmWSW (250°)7.4 km/hClear
10:15 AM8 °C-1 °C53 %1019.6 hPa16.1 kmNW (310°)9.3 km/hClear
10:35 AM8 °C-1 °C53 %1020.3 hPa16.1 kmNorth (350°)16.7 km/hClear
10:55 AM8 °C-1 °C53 %1020.3 hPa16.1 kmNorth (350°)13 km/h25.9 km/hClear
11:15 AM10 °C-1 °C47 %1020 hPa16.1 kmNW (320°)9.3 km/hClear
11:35 AM11 °C-1 °C44 %1019.6 hPa16.1 kmNorth (350°)7.4 km/hClear
11:55 AM12 °C-1 °C41 %1019.6 hPa16.1 kmNNW (340°)5.6 km/hClear
12:15 PM12 °C0 °C44 %1020 hPa16.1 kmNorth (10°)14.8 km/hClear
12:35 PM11 °C1 °C50 %1020 hPa16.1 kmNNE (30°)22.2 km/h37 km/hClear
12:55 PM11 °C0 °C47 %1020 hPa16.1 kmNNE (30°)18.5 km/hClear
1:15 PM11 °C0 °C47 %1020 hPa16.1 kmNorth (10°)20.4 km/hClear
1:35 PM11 °C1 °C50 %1020.3 hPa16.1 kmNE (40°)20.4 km/h33.3 km/hClear
1:55 PM11 °C1 °C50 %1020.7 hPa16.1 kmNorth (10°)24.1 km/h35.2 km/hClear
2:15 PM10 °C1 °C54 %1021 hPa16.1 kmNNE (30°)22.2 km/h37 km/hClear
2:35 PM10 °C1 °C54 %1021.3 hPa16.1 kmNorth (10°)25.9 km/h35.2 km/hClear
2:55 PM9 °C0 °C54 %1021.7 hPa16.1 kmNNE (30°)27.8 km/h40.7 km/hClear
3:15 PM9 °C1 °C58 %1022 hPa16.1 kmNorth (10°)27.8 km/h38.9 km/hClear
3:35 PM7 °C0 °C61 %1022.7 hPa16.1 kmNorth (360°)37 km/h46.3 km/hClear
3:55 PM6 °C-1 °C61 %1023 hPa16.1 kmNNE (30°)22.2 km/h35.2 km/hClear
4:15 PM5 °C-1 °C65 %1023.7 hPa16.1 kmNorth (10°)24.1 km/h35.2 km/hClear
4:35 PM5 °C-1 °C65 %1024.7 hPa16.1 kmNorth (10°)20.4 km/h29.6 km/hClear
4:55 PM3 °C-1 °C75 %1025.1 hPa16.1 kmNNE (20°)20.4 km/h37 km/hClear
5:15 PM2 °C-2 °C75 %1025.4 hPa16.1 kmNorth (10°)25.9 km/h37 km/hClear
5:35 PM1 °C-3 °C75 %1026.1 hPa16.1 kmNorth (10°)24.1 km/h37 km/hClear
5:55 PM0 °C-3 °C80 %1026.8 hPa16.1 kmNNE (20°)22.2 km/h33.3 km/hClear
6:15 PM0 °C-5 °C69 %1027.4 hPa16.1 kmNNE (30°)22.2 km/h33.3 km/hClear
6:35 PM-1 °C-5 °C75 %1028.1 hPa16.1 kmNNE (30°)18.5 km/h27.8 km/hClear
6:55 PM-1 °C-6 °C69 %1028.8 hPa16.1 kmNNE (20°)11.1 km/hClear
7:15 PM-2 °C-6 °C74 %1029.5 hPa16.1 kmNorth (10°)9.3 km/hClear
7:35 PM-2 °C-7 °C69 %1029.8 hPa16.1 kmNorth (10°)11.1 km/hClear
7:55 PM-2 °C-7 °C69 %1029.8 hPa16.1 kmNNE (30°)13 km/hClear
8:15 PM-2 °C-7 °C69 %1030.1 hPa16.1 kmNorth (10°)13 km/hClear
8:35 PM-2 °C-7 °C69 %1030.5 hPa16.1 kmNNE (20°)14.8 km/hClear
9:15 PM-3 °C-7 °C74 %1030.8 hPa16.1 kmNNE (20°)14.8 km/hClear
9:35 PM-3 °C-8 °C69 %1030.8 hPa16.1 kmNNE (30°)14.8 km/hClear
9:55 PM-3 °C-8 °C69 %1030.8 hPa16.1 kmNNE (30°)13 km/hClear
10:15 PM-4 °C-9 °C69 %1030.8 hPa16.1 kmNNE (30°)18.5 km/h31.5 km/hClear
10:35 PM-4 °C-10 °C64 %1030.8 hPa16.1 kmNE (40°)16.7 km/hClear
10:55 PM-5 °C-10 °C68 %1030.5 hPa16.1 kmNE (40°)14.8 km/hClear
11:15 PM-5 °C-10 °C68 %1030.8 hPa16.1 kmNNE (30°)9.3 km/hClear
11:35 PM-5 °C-10 °C68 %1030.5 hPa16.1 kmNNE (20°)11.1 km/hClear
Hourly data recorded from KCUH, located 0 kilometers away from Maramec, Oklahoma







STORIES FROM OUR PARTNERS